SAARSABE

Guest
Details From SAAR - Rosario (Islas Malvinas)
To SABE - Aeroparque Jorge Newbery
Flight Number -
Tags decoded
Created
Modified
Stats Distance 155 nm / 286 km
Max Altitude 0 ft / 0 m
Waypoints 7
Social Downloads 0
Likes 0
Share VATSIM

Download

Looking for another format? Having issues loading an existing format? Contact us
Advertisement - Login to hide

Notes

Requested: SAAR ESKON W5 FDO FDO78 SABE AER14 DORVO DAGUS LUCIO SULS PAGAD SAZV SA4T SA2Q SAZM SAZL ISTER TEDAR SABE

Route

SAAR ESKON W5 FDO FDO78 SABE

ID Type Via Altitude Latitude Longitude Leg Dist Tot Dist Heading (true) Name
O SAAR APT - 0 ft / 0 m -32.90347˚ -60.78463˚ - 0 nm - Rosario (Islas Malvinas)
ESKON FIX - 0 ft / 0 m -33.23111˚ -60.32889˚ 30 nm 30 nm 131° / 131° -
PEDRO FIX W5 (AWY-LO) 0 ft / 0 m -33.70111˚ -59.66694˚ 43 nm 73 nm 131° / 130° -
ATOVO FIX W5 (AWY-LO) 0 ft / 0 m -34.06111˚ -59.15056˚ 33 nm 107 nm 130° / 130° -
FDO VOR W5 (AWY-LO) 0 ft / 0 m -34.45139˚ -58.58417˚ 36 nm 143 nm 130° / 130° SAN FERNANDO VOR-DME
FDO78 FIX - 0 ft / 0 m -34.48362˚ -58.55148˚ 2 nm 146 nm 140° / 140° -
O SABE APT - 0 ft / 0 m -34.55941˚ -58.41575˚ 8 nm 154 nm 124° / 124° Aeroparque Jorge Newbery

Altitude Profile

Advertisement - Login to hide

SAAR

Details ICAO SAAR (ROS)
Name Rosario (Islas Malvinas)
Region Argentina
Timezone America/Argentina/Cordoba (UTC-3.0)
Stats Elevation 85 ft / 26 m (AMSL)
Location -32.903472° -60.784635°
Runways 1
Magnetic Variation 7.841° W

METAR

SAAR 141300Z 20009KT 9999 FEW010 24/18 Q1015

Decode

TAF

TAF SAAR 141100Z 1412/1512 25005KT 9999 SCT007 TX34/1419Z TN21/1412Z BECMG 1414/1416 CAVOK BECMG 1423/1502 VRB03KT BECMG 1508/1510 18003KT

Decode

Departure Runways

ID Width Length Bearing (true) Bearing (mag) Surface Threshold Offset Overrun Length
02 148 ft / 45 m 9,878 ft / 3,011 m 10.78° 18.62° Concrete 0 ft / 0 m 128 ft / 39 m
20 148 ft / 45 m 9,878 ft / 3,011 m 190.78° 198.62° Concrete 0 ft / 0 m 0 ft / 0 m

SABE

Details ICAO SABE (AEP)
Name Aeroparque Jorge Newbery
Region Argentina
Timezone Unknown (UTC+0.0)
Stats Elevation 17 ft / 5 m (AMSL)
Location -34.559414° -58.415749°
Runways 1
Magnetic Variation 8.980° W

METAR

SABE 141300Z 25006KT 220V300 CAVOK 24/15 Q1012

Decode

TAF

TAF SABE 141100Z 1412/1512 26010KT CAVOK TX31/1419Z TN22/1509Z BECMG 1414/1417 25015KT BECMG 1421/1423 20005KT BECMG 1510/1512 08005KT

Decode

Destination Runways

ID Width Length Bearing (true) Bearing (mag) Surface Threshold Offset Overrun Length
13 131 ft / 40 m 6,882 ft / 2,098 m 123.87° 132.85° Concrete 0 ft / 0 m 791 ft / 241 m
31 131 ft / 40 m 6,882 ft / 2,098 m 303.86° 312.84° Concrete 991 ft / 302 m 0 ft / 0 m

Approach Navaids

Runway Type Ident Frequency Range Bearing (true) Bearing (mag) Slope Elevation
13 Localiser AE 109.50 MHz 18 nm / 33 km 123.95° 132.93° - 17 ft / 5 m (AMSL)
13 Glidescope AE 109.50 MHz 10 nm / 19 km 124.47° 133.45° 3.00° 17 ft / 5 m (AMSL)
13 DME AE 109.50 MHz 18 nm / 33 km - - - 17 ft / 5 m (AMSL)

Popular Alternatives